Meteopurmerend
purmerend
Purmerend - Baaienwijk



My webcam  My webcam


Onweer radar Meer informatie blitzortung!


Regen radar Meer informatie rain snow radar


Bezoek onze andere website:

CandyAppleRed WebdesignWebdesign Purmerend Candy Apple Red

MeteopurmerendBlog

Template documentation
and downloads



Het weer levert geen direct gevaar op.    Er zijn geen waarschuwingen afgegeven.

15 daagse weersverwachting Espoo (FI)

  • Overzicht
  • Per uur
  • 15 dagen
  • Extra
  • Vergelijk
  • Kaarten
  • Dagkaart
  • Meer »
  • Info
  • Statistieken
  • Directe link
    Temp 6h Neerslag Wind  
 04:55     22:02    Daglengte: 17:07 Vandaag
09:00
19°
2.6 mm
4
15:00
21°
7.9 mm
4
21:00
20°
3.2 mm
4
 04:58     22:00    Daglengte: 17:02 Morgen
03:00
18°
 
4
09:00
19°
2.9 mm
5
15:00
21°
 
7
21:00
19°
 
6
 05:00     21:57    Daglengte: 16:57 Vrijdag 30 Jul
03:00
18°
 
6
09:00
17°
5.8 mm
7
15:00
18°
12.8 mm
6
21:00
17°
24.9 mm
3
warningclass
 05:02     21:55    Daglengte: 16:53 Zaterdag 31 Jul
03:00
14°
 
4
Locatie info
Region: Uusimaa
Latitude: 60.2068°N
Longitude: 24.6558°E
16 masl
Postcode: 02770
Temp/Neerslag /Baro Onweer/Dauwpunt
    Temp Baro 1h Neerslag Dauwpunt Wind UV Bewolking  
 04:55     22:02    Daglengte: 17:07 Vandaag
07:00
19°
1008.9 hPa 0.4 mm
82%
18.1°
3
Windvlaag: 4.3 m/s
86%
08:00
19°
1008.2 hPa 1.0 mm
82%
18.1°
3
Windvlaag: 3.4 m/s
86%
09:00
19°
1008.0 hPa 1.3 mm
82%
18.5°
4
Windvlaag: 4.3 m/s
86%
10:00
19°
1007.9 hPa 1.8 mm
82%
18.7°
4
Windvlaag: 4.9 m/s
86% warningclass
11:00
19°
1007.6 hPa 1.5 mm
82%
18.9°
4
Windvlaag: 4.6 m/s
83% warningclass
12:00
20°
1007.2 hPa 1.2 mm
82%
19.2°
4
Windvlaag: 6.2 m/s
86% warningclass
13:00
20°
1007.0 hPa 1.0 mm
82%
19.8°
4
Windvlaag: 5.9 m/s
71%
14:00
21°
1006.6 hPa 1.3 mm
82%
20.3°
4
Windvlaag: 6.4 m/s
75%
15:00
21°
1006.3 hPa 1.2 mm
80%
20.1°
4
Windvlaag: 6.8 m/s
44%
16:00
21°
1006.0 hPa 1.5 mm
82%
18.6°
4
Windvlaag: 6.4 m/s
56%
17:00
22°
1005.6 hPa 0.8 mm
81%
16.2°
4
Windvlaag: 8.6 m/s
16%
18:00
22°
1005.4 hPa 0.9 mm
82%
16.8°
5
Windvlaag: 9.3 m/s
55%
19:00
21°
1005.2 hPa
82%
16.8°
4
Windvlaag: 8.8 m/s
38%
20:00
21°
1005.0 hPa
81%
17.2°
4
Windvlaag: 7.6 m/s
35%
21:00
20°
1004.9 hPa
80%
17.7°
4
Windvlaag: 7.4 m/s
47%
22:00
19°
1004.9 hPa
36%
17.8°
3
Windvlaag: 7.2 m/s
48%
23:00
19°
1004.7 hPa
19%
18.2°
4
Windvlaag: 7.4 m/s
63%
 04:58     22:00    Daglengte: 17:02 Morgen
00:00
19°
1004.6 hPa
18%
18.4°
4
Windvlaag: 7.4 m/s
58%
01:00
18°
1004.2 hPa
62%
18.3°
4
Windvlaag: 7.9 m/s
57%
02:00
18°
1003.8 hPa
32%
18.2°
3
Windvlaag: 7.5 m/s
49%
03:00
18°
1003.3 hPa
26%
18.2°
4
Windvlaag: 7.3 m/s
62%
04:00
18°
1002.8 hPa
24%
18.4°
4
Windvlaag: 7.5 m/s
86%
05:00
18°
1002.4 hPa
24%
18.1°
4
Windvlaag: 7.1 m/s
57%
06:00
18°
1002.1 hPa
25%
18.1°
4
Windvlaag: 7.2 m/s
63%
07:00
19°
1001.9 hPa 0.7 mm
68%
18.2°
4
Windvlaag: 7.2 m/s
73%
08:00
19°
1001.5 hPa 0.9 mm
78%
18.0°
4
Windvlaag: 7.8 m/s
68%
09:00
19°
1001.4 hPa 1.2 mm
77%
16.5°
5
Windvlaag: 8.3 m/s
52%
10:00
20°
1001.2 hPa
75%
16.1°
5
Windvlaag: 8.7 m/s
55%
11:00
20°
1001.0 hPa
81%
18.0°
6
Windvlaag: 8.7 m/s
48%
12:00
20°
1000.9 hPa
32%
17.8°
6
Windvlaag: 8.2 m/s
65%
13:00
21°
1000.7 hPa
37%
16.3°
6
Windvlaag: 8.3 m/s
11%
14:00
21°
1000.4 hPa
23%
15.7°
7
Windvlaag: 9.3 m/s
52%
15:00
21°
1000.1 hPa
21%
18.0°
7
Windvlaag: 9.2 m/s
40%
16:00
21°
999.8 hPa
16%
18.2°
7
Windvlaag: 8.9 m/s
11%
17:00
21°
999.8 hPa
14%
16.0°
7
Windvlaag: 8.9 m/s
10%
18:00
21°
999.7 hPa
14%
15.1°
6
Windvlaag: 8.2 m/s
7%
19:00
21°
999.3 hPa
14%
14.2°
6
Windvlaag: 8.7 m/s
10%
20:00
20°
999.1 hPa
14%
14.2°
6
Windvlaag: 8.8 m/s
12%
21:00
19°
999.0 hPa
14%
15.0°
6
Windvlaag: 8.3 m/s
12%
22:00
19°
998.9 hPa
22%
15.8°
5
Windvlaag: 8.6 m/s
54%
23:00
18°
998.7 hPa
19%
16.8°
5
Windvlaag: 8.1 m/s
53%
 05:00     21:57    Daglengte: 16:57 Vrijdag 30 Jul
00:00
18°
997.8 hPa
32%
16.0°
6
Windvlaag: 9.1 m/s
39%
01:00
18°
997.7 hPa
37%
14.4°
6
Windvlaag: 10.3 m/s
52%
02:00
17°
997.3 hPa
32%
14.0°
6
Windvlaag: 10.2 m/s
45%
03:00
18°
997.1 hPa
32%
13.6°
6
Windvlaag: 11.2 m/s
59%
04:00
17°
996.9 hPa
33%
13.2°
6
Windvlaag: 10.9 m/s
9%
05:00
17°
996.4 hPa
32%
13.1°
5
Windvlaag: 10.7 m/s
9%
06:00
17°
996.2 hPa
32%
13.0°
5
Windvlaag: 9.7 m/s
28%
07:00
17°
995.8 hPa 2.1 mm
89%
12.4°
6
Windvlaag: 10.7 m/s
58%
08:00
17°
995.7 hPa 1.9 mm
95%
12.9°
6
Windvlaag: 10.7 m/s
60%
09:00
17°
995.2 hPa 1.8 mm
100%
12.8°
7
Windvlaag: 11.6 m/s
90%
10:00
17°
994.2 hPa 2.9 mm
100%
12.3°
5
Windvlaag: 13.7 m/s
94% warningclass
11:00
17°
993.9 hPa 3.1 mm
100%
14.9°
6
Windvlaag: 13 m/s
78% warningclass
12:00
18°
993.7 hPa 3.2 mm
100%
12.3°
6
Windvlaag: 13.2 m/s
59%
13:00
19°
993.5 hPa
100%
12.1°
7
Windvlaag: 14.6 m/s
81%
14:00
18°
993.1 hPa
100%
10.3°
6
Windvlaag: 14.9 m/s
68%
15:00
18°
992.7 hPa 3.6 mm
100%
9.2°
6
Windvlaag: 13.7 m/s
90%
16:00
17°
992.6 hPa 4.5 mm
100%
15.6°
6
Windvlaag: 15.3 m/s
96% warningclass
17:00
17°
991.9 hPa 5.0 mm
100%
12.9°
5
Windvlaag: 18.1 m/s
92% warningclass
18:00
17°
991.5 hPa 5.1 mm
100%
13.1°
6
Windvlaag: 16.6 m/s
100%
19:00
17°
991.1 hPa 5.2 mm
100%
10.7°
5
Windvlaag: 17.2 m/s
87% warningclass
20:00
17°
990.3 hPa 5.2 mm
100%
11.7°
5
Windvlaag: 17.4 m/s
81% warningclass
21:00
17°
989.8 hPa
100%
11.6°
3
Windvlaag: 20 m/s
89% warningclass
22:00
16°
989.5 hPa
42%
14.6°
3
Windvlaag: 19.6 m/s
77% warningclass
23:00
16°
989.3 hPa
32%
14.4°
3
Windvlaag: 17.9 m/s
34% warningclass
 05:02     21:55    Daglengte: 16:53 Zaterdag 31 Jul
00:00
15°
989.3 hPa
27%
13.1°
3
Windvlaag: 13.7 m/s
17%
01:00
14°
989.9 hPa
21%
13.0°
3
Windvlaag: 13.2 m/s
19%
02:00
14°
990.4 hPa
21%
12.8°
3
Windvlaag: 14.2 m/s
12%
03:00
14°
991.1 hPa
21%
12.9°
4
Windvlaag: 13 m/s
15%
Temp/Neerslag /Baro Onweer/Dauwpunt
    Temp Baro Neerslag Dauwpunt Wind Bewolking  
 04:55     22:02    Daglengte: 17:07 Vandaag
09:00
19°
1008.0 hPa 2.6 mm 18.5°
4
86%
12:00
20°
1007.2 hPa 4.4 mm 19.2°
4
86% warningclass
15:00
21°
1006.3 hPa 3.4 mm 20.1°
4
44%
18:00
22°
1005.4 hPa 3.2 mm 16.8°
5
55%
21:00
20°
1004.9 hPa   17.7°
4
47%
 04:58     22:00    Daglengte: 17:02 Morgen
00:00
19°
1004.6 hPa   18.4°
4
58%
03:00
18°
1003.3 hPa   18.2°
4
62%
06:00
18°
1002.1 hPa   18.1°
4
63%
09:00
19°
1001.4 hPa 2.9 mm 16.5°
5
52%
12:00
20°
1000.9 hPa   17.8°
6
65%
15:00
21°
1000.1 hPa   18.0°
7
40%
18:00
21°
999.7 hPa   15.1°
6
7%
21:00
19°
999.0 hPa   15.0°
6
12%
 05:00     21:57    Daglengte: 16:57 Vrijdag 30 Jul
00:00
18°
997.8 hPa   16.0°
6
39%
03:00
18°
997.1 hPa   13.6°
6
59%
06:00
17°
996.2 hPa   13.0°
5
28%
09:00
17°
995.2 hPa 5.8 mm 12.8°
7
90%
12:00
18°
993.7 hPa 9.2 mm 12.3°
6
59%
15:00
18°
992.7 hPa 3.6 mm 9.2°
6
90%
18:00
17°
991.5 hPa 14.6 mm 13.1°
6
100%
21:00
17°
989.8 hPa 10.3 mm 11.6°
3
89% warningclass
 05:02     21:55    Daglengte: 16:53 Zaterdag 31 Jul
00:00
15°
989.3 hPa   13.1°
3
17%
03:00
14°
991.1 hPa   12.9°
4
15%
06:00
14°
991.9 hPa 26.6 mm 12.4°
6
1%
09:00
17°
994.1 hPa 26.6 mm 12.9°
6
1%
12:00
21°
995.8 hPa 26.6 mm 10.6°
5
0%
15:00
21°
997.5 hPa 26.7 mm 11.4°
6
1%
18:00
21°
998.5 hPa 26.7 mm 10.9°
5
1%
21:00
17°
999.7 hPa 26.7 mm 12.4°
3
1%
 05:05     21:52    Daglengte: 16:47 Zondag 01 Aug
00:00
15°
999.7 hPa 26.8 mm 14.2°
2
0%
03:00
15°
998.6 hPa 27.2 mm 14.2°
2
1%
06:00
15°
996.9 hPa 28.8 mm 14.6°
3
1%
09:00
15°
995.6 hPa 38.5 mm 14.8°
3
1%
12:00
16°
994.6 hPa 48.7 mm 15.4°
2
1%
15:00
16°
995.3 hPa 51.5 mm 15.2°
2
1%
18:00
20°
996.8 hPa 51.7 mm 13.1°
4
1%
21:00
17°
998.2 hPa 52.6 mm 14.8°
5
1%
 05:07     21:50    Daglengte: 16:43 Maandag 02 Aug
00:00
15°
999.1 hPa 53.9 mm 14.7°
4
0%
03:00
15°
999.5 hPa 54.0 mm 14.0°
3
0%
06:00
15°
999.8 hPa 54.1 mm 13.8°
4
0%
09:00
18°
1000.3 hPa 54.2 mm 14.4°
4
0%
12:00
21°
1001.0 hPa 54.5 mm 10.5°
5
1%
15:00
21°
1001.3 hPa 54.6 mm 10.0°
5
1%
18:00
20°
1001.6 hPa 54.6 mm 10.1°
5
1%
21:00
16°
1001.8 hPa 54.6 mm 12.4°
3
1%
 05:09     21:47    Daglengte: 16:38 Dinsdag 03 Aug
00:00
13°
1002.9 hPa 54.6 mm 12.9°
4
0%
03:00
12°
1004.7 hPa 54.6 mm 11.4°
4
0%
06:00
11°
1006.1 hPa 54.6 mm 10.0°
3
0%
09:00
15°
1007.4 hPa 54.6 mm 10.5°
4
0%
12:00
19°
1008.6 hPa 54.6 mm 6.9°
4
0%
15:00
21°
1008.9 hPa 54.6 mm 5.4°
4
0%
18:00
19°
1009.8 hPa 54.6 mm 8.8°
4
1%
21:00
16°
1010.5 hPa 54.6 mm 10.5°
2
1%
 05:12     21:45    Daglengte: 16:33 Woensdag 04 Aug
00:00
13°
1011.7 hPa 54.6 mm 9.4°
2
1%
03:00
11°
1012.2 hPa 54.6 mm 8.1°
1
1%
06:00
11°
1012.4 hPa   7.7°
2
1%
09:00
16°
1012.6 hPa 109.3 mm 9.2°
2
1%
15:00
19°
1012.4 hPa 109.7 mm 11.2°
3
1%
21:00
16°
1012.4 hPa 110.3 mm 13.1°
2
0%
 05:14     21:42    Daglengte: 16:28 Donderdag 05 Aug
03:00
13°
1013.4 hPa 110.6 mm 12.3°
1
0%
09:00
18°
1013.8 hPa 110.7 mm 11.9°
2
0%
15:00
20°
1012.9 hPa 110.9 mm 10.6°
3
1%
21:00
18°
1010.4 hPa 110.9 mm 13.2°
5
1%
 05:17     21:39    Daglengte: 16:22 Vrijdag 06 Aug
03:00
18°
1008.3 hPa 111.0 mm 13.8°
4
1%
09:00
20°
1006.8 hPa 111.8 mm 14.9°
5
1%
15:00
24°
1006.2 hPa 111.9 mm 14.6°
4
1%
21:00
20°
1004.9 hPa 112.5 mm 16.8°
3
1%
 05:19     21:37    Daglengte: 16:18 Zaterdag 07 Aug
03:00
16°
1010.1 hPa 0.4 mm 13.2°
2
66%
09:00
18°
1009.3 hPa 0.4 mm 13.7°
4
66%
15:00
20°
1008.5 hPa 1.3 mm 14.0°
4
70%
21:00
18°
1008.2 hPa 1.9 mm 14.3°
3
76%
 05:21     21:34    Daglengte: 16:13 Zondag 08 Aug
03:00
16°
1008.1 hPa 0.8 mm 14.0°
2
66%
09:00
18°
1007.8 hPa 0.2 mm 14.3°
3
68%
15:00
20°
1008.4 hPa 0.9 mm 14.0°
3
69%
21:00
18°
1009.1 hPa 0.4 mm 14.1°
2
57%
 05:24     21:31    Daglengte: 16:07 Maandag 09 Aug
03:00
16°
1010.1 hPa 0.6 mm 14.1°
2
64%
09:00
18°
1010.7 hPa 0.6 mm 14.1°
2
63%
15:00
20°
1011.3 hPa 0.7 mm 13.8°
3
60%
21:00
18°
1011.5 hPa 0.6 mm 13.9°
2
68%
 05:26     21:29    Daglengte: 16:03 Dinsdag 10 Aug
03:00
16°
1011.9 hPa 0.5 mm 13.3°
0
73%
09:00
17°
1011.9 hPa 0.5 mm 13.6°
1
75%
15:00
20°
1012.2 hPa 0.6 mm 13.7°
1
70%
21:00
18°
1012.1 hPa 0.7 mm 14.0°
1
61%
 05:29     21:26    Daglengte: 15:57 Woensdag 11 Aug
03:00
16°
1012.6 hPa 0.4 mm 13.3°
1
51%
09:00
17°
1012.6 hPa 0.5 mm 13.6°
0
49%
15:00
20°
1012.3 hPa 0.8 mm 13.4°
1
49%
21:00
18°
1012.1 hPa 0.5 mm 13.5°
1
55%
 05:31     21:23    Daglengte: 15:52 Donderdag 12 Aug
03:00
16°
1012.1 hPa 0.4 mm 12.8°
0
62%
  CAPE Lifted Index Hail Supercell Tornado SRH 3km CL BTM PRES CL TOP PRES Swiss DWD icon SMHI TS
 04:55     22:02    Daglengte: 17:07 Vandaag
07:00 80 J/kg 0.5 K 0 % 0 % 0 % 0 m²/s² 0 0 0.8 61
08:00 34 J/kg 0.4 K 0 % 0 % 0 % 0 m²/s² 0 0 0.4 61
09:00 67 J/kg -1.0 K 0 % 0 % 0 % 0 m²/s² 0 0 -1 61
10:00 80 J/kg -1.6 K 0 % 0 % 0 % 0 m²/s² 0 0 -1.48 95
11:00 121 J/kg -1.7 K 0 % 0 % 0 % 0 m²/s² 0 0 -0.44 95
12:00 376 J/kg -1.5 K 0 % 0 % 0 % 0 m²/s² 0 0 0.63 95
13:00 803 J/kg -2.4 K 0 % 0 % 0 % 0 m²/s² 0 0 0.06 80
14:00 773 J/kg -2.4 K 0 % 0 % 0 % 0 m²/s² 0 0 0.45 80
15:00 1056 J/kg -2.9 K 0 % 0 % 0 % 0 m²/s² 0 0 0.19 80
16:00 618 J/kg -2.0 K 0 % 0 % 0 % 0 m²/s² 0 0 1.48 80
17:00 774 J/kg -2.8 K 0 % 0 % 0 % 0 m²/s² 0 0 -0.67 80
18:00 696 J/kg -2.4 K 0 % 0 % 0 % 0 m²/s² 0 0 -0.78 80
19:00 569 J/kg -1.9 K 0 % 0 % 0 % 0 m²/s² 0 0 1.13 80
20:00 604 J/kg -1.9 K 0 % 0 % 0 % 0 m²/s² 0 0 1.19 80
21:00 516 J/kg -1.8 K 0 % 0 % 0 % 0 m²/s² 0 0 1.47 3
22:00 260 J/kg -1.1 K 0 % 0 % 0 % 0 m²/s² 0 0 1.99 3
23:00 241 J/kg -0.8 K 0 % 0 % 0 % 0 m²/s² 0 0 2.05 3
 04:58     22:00    Daglengte: 17:02 Morgen
00:00 294 J/kg -0.6 K 0 % 0 % 0 % 0 m²/s² 0 0 1.92 3
01:00 399 J/kg -0.7 K 0 % 0 % 0 % 0 m²/s² 0 0 2.84 2
02:00 513 J/kg -1.3 K 0 % 0 % 0 % 0 m²/s² 0 0 2.63 2
03:00 667 J/kg -1.6 K 0 % 0 % 0 % 0 m²/s² 0 0 2.45 2
04:00 551 J/kg -1.4 K 0 % 0 % 0 % 0 m²/s² 0 0 2.05 3
05:00 494 J/kg -1.4 K 0 % 0 % 0 % 0 m²/s² 0 0 0.73 3
06:00 611 J/kg -1.6 K 0 % 0 % 0 % 0 m²/s² 0 0 -0.1 3
07:00 868 J/kg -2.4 K 0 % 0 % 0 % 0 m²/s² 0 0 -1.74 3
08:00 957 J/kg -2.5 K 0 % 0 % 0 % 0 m²/s² 0 0 -1.66 80
09:00 184 J/kg -0.1 K 0 % 0 % 0 % 0 m²/s² 0 0 0.32 80
10:00 47 J/kg 0.9 K 0 % 0 % 0 % 0 m²/s² 0 0 0.93 3
11:00 176 J/kg -0.3 K 0 % 0 % 0 % 0 m²/s² 0 0 -0.3 3
12:00 344 J/kg -1.2 K 0 % 0 % 0 % 0 m²/s² 0 0 -1.17 3
13:00 443 J/kg -1.6 K 0 % 0 % 0 % 0 m²/s² 0 0 -1.42 2
14:00 454 J/kg -2.0 K 0 % 0 % 0 % 0 m²/s² 0 0 -1.37 3
15:00 601 J/kg -2.7 K 0 % 0 % 0 % 0 m²/s² 0 0 -1.89 3
16:00 589 J/kg -2.5 K 0 % 0 % 0 % 0 m²/s² 0 0 -0.91 2
17:00 558 J/kg -2.2 K 0 % 0 % 0 % 0 m²/s² 0 0 0.47 2
18:00 580 J/kg -1.6 K 0 % 0 % 0 % 0 m²/s² 0 0 1.28 1
19:00 579 J/kg -1.5 K 0 % 0 % 0 % 0 m²/s² 0 0 1.71 1
20:00 387 J/kg -0.8 K 0 % 0 % 0 % 0 m²/s² 0 0 3.61 2
21:00 381 J/kg -0.7 K 0 % 0 % 0 % 0 m²/s² 0 0 3.83 2
22:00 480 J/kg -1.2 K 0 % 0 % 0 % 0 m²/s² 0 0 3.69 2
23:00 426 J/kg -1.0 K 0 % 0 % 0 % 0 m²/s² 0 0 3.77 2
 05:00     21:57    Daglengte: 16:57 Vrijdag 30 Jul
00:00 206 J/kg 0.3 K 0 % 0 % 0 % 0 m²/s² 0 0 4.59 3
01:00 119 J/kg 1.6 K 0 % 0 % 0 % 0 m²/s² 0 0 5.35 2
02:00 111 J/kg 2.5 K 0 % 0 % 0 % 0 m²/s² 0 0 7.12 2
03:00 244 J/kg 1.9 K 0 % 0 % 0 % 0 m²/s² 0 0 6.13 2
04:00 239 J/kg 2.9 K 0 % 0 % 0 % 0 m²/s² 0 0 6.11 2
05:00 224 J/kg 2.6 K 0 % 0 % 0 % 0 m²/s² 0 0 5.48 2
06:00 294 J/kg 1.4 K 0 % 0 % 0 % 0 m²/s² 0 0 4.52 2
07:00 431 J/kg -0.6 K 0 % 0 % 0 % 0 m²/s² 0 0 1.41 2
08:00 651 J/kg -2.8 K 0 % 0 % 0 % 0 m²/s² 0 0 -0.79 3
09:00 754 J/kg -3.4 K 0 % 0 % 0 % 0 m²/s² 0 0 -0.94 80
10:00 704 J/kg -3.2 K 0 % 0 % 0 % 0 m²/s² 0 0 -1.01 95
11:00 909 J/kg -4.0 K 0 % 0 % 0 % 0 m²/s² 0 0 -2.05 3
12:00 632 J/kg -2.9 K 0 % 0 % 0 % 0 m²/s² 0 0 -0.5 3
13:00 697 J/kg -3.0 K 0 % 0 % 0 % 0 m²/s² 0 0 -1.47 3
14:00 549 J/kg -2.8 K 0 % 0 % 0 % 0 m²/s² 0 0 0.83 3
15:00 515 J/kg -2.5 K 0 % 0 % 0 % 0 m²/s² 0 0 1.73 80
16:00 774 J/kg -2.6 K 0 % 0 % 0 % 0 m²/s² 0 0 -2.3 80
17:00 336 J/kg -0.9 K 0 % 0 % 0 % 0 m²/s² 0 0 0.36 80
18:00 734 J/kg -2.3 K 0 % 0 % 0 % 0 m²/s² 0 0 -1.04 80
19:00 345 J/kg -0.8 K 0 % 0 % 0 % 0 m²/s² 0 0 -0.56 61
20:00 274 J/kg -0.7 K 0 % 0 % 0 % 0 m²/s² 0 0 -0.19 80
21:00 198 J/kg -0.6 K 0 % 0 % 0 % 0 m²/s² 0 0 -0.39 3
22:00 144 J/kg -0.5 K 0 % 0 % 0 % 0 m²/s² 0 0 -0.5 3
23:00 89 J/kg -1.0 K 0 % 0 % 0 % 0 m²/s² 0 0 -0.34 3
 05:02     21:55    Daglengte: 16:53 Zaterdag 31 Jul
00:00 235 J/kg -1.4 K 0 % 0 % 0 % 0 m²/s² 0 0 0.85 1
01:00 0 J/kg 0.0 K 0 % 0 % 0 % 0 m²/s² 0 0 2.61 1
02:00 0 J/kg 1.9 K 0 % 0 % 0 % 0 m²/s² 0 0 7.06 0
03:00 7 J/kg 1.9 K 0 % 0 % 0 % 0 m²/s² 0 0 6.43 2
Temp Baro Wind Neerslag
  EWN Forecast EWN WRFDA DWD ICON FMI HIRLAM MET Norway GFS
 04:55     22:02    Daglengte: 17:07 Vandaag
09:00 19.4° 1008.0 hPa 4.3 m/s 2.6 mm 18.9° 1008.1 hPa 4.9 m/s 1.9 mm 19.2° 1007.9 hPa 4.2 m/s 3.5 mm 19.5° 1007.8 hPa 3.1 m/s 0.0 mm 17.9° 1008.9 hPa 3.9 m/s
12:00 19.7° 1007.2 hPa 4.5 m/s 4.4 mm 19.9° 1007.1 hPa 4.4 m/s 5.1 mm 20.0° 1006.7 hPa 4.5 m/s 3.5 mm 19.7° 1007.3 hPa 2.8 m/s 0.0 mm 18.4° 1007.7 hPa 5.4 m/s
15:00 21.2° 1006.3 hPa 3.6 m/s 3.4 mm 21.6° 1006.3 hPa 4.2 m/s 7.7 mm 21.6° 1006.2 hPa 3.5 m/s 1.7 mm 21.0° 1006.6 hPa 2.6 m/s 0.0 mm 18.3° 1006.5 hPa 4.0 m/s
18:00 21.6° 1005.4 hPa 4.6 m/s 3.2 mm 22.1° 1005.5 hPa 5.9 m/s 8.7 mm 21.6° 1005.1 hPa 3.0 m/s 1.2 mm 22.8° 1005.9 hPa 4.5 m/s 0.0 mm 20.6° 1005.1 hPa 2.8 m/s
21:00 19.8° 1004.9 hPa 3.8 m/s 0.0 mm 19.9° 1004.6 hPa 3.9 m/s 8.7 mm 19.8° 1004.7 hPa 3.2 m/s 1.0 mm 20.0° 1005.4 hPa 3.6 m/s 0.0 mm 19.1° 1004.6 hPa 4.3 m/s
 04:58     22:00    Daglengte: 17:02 Morgen
00:00 18.7° 1004.6 hPa 3.7 m/s 0.0 mm 17.3° 1004.5 hPa 3.1 m/s 8.7 mm 19.3° 1003.6 hPa 3.8 m/s 0.0 mm 17.3° 1005.1 hPa 2.0 m/s 0.0 mm 17.8° 1004.2 hPa 3.0 m/s
03:00 18.4° 1003.3 hPa 3.5 m/s 0.0 mm 18.9° 1002.9 hPa 3.4 m/s 8.8 mm 18.7° 1002.5 hPa 3.6 m/s 0.0 mm 16.5° 1004.1 hPa 1.7 m/s 0.0 mm 17.6° 1003.0 hPa 3.1 m/s
06:00 18.5° 1002.1 hPa 4.2 m/s 0.0 mm 18.8° 1001.9 hPa 4.2 m/s 8.9 mm 18.5° 1001.2 hPa 4.3 m/s 0.0 mm 17.7° 1002.9 hPa 2.6 m/s 0.0 mm 18.4° 1002.2 hPa 4.5 m/s
09:00 19.4° 1001.4 hPa 4.9 m/s 2.9 mm 20.0° 1001.5 hPa 5.7 m/s 8.9 mm 19.0° 999.9 hPa 4.9 m/s 1.6 mm 20.5° 1001.7 hPa 3.3 m/s 0.0 mm 21.0° 1001.1 hPa 6.0 m/s
12:00 20.4° 1000.9 hPa 5.9 m/s 0.0 mm 18.5° 1001.2 hPa 4.4 m/s 9.7 mm 20.9° 999.5 hPa 6.7 m/s 0.1 mm 20.7° 1001.1 hPa 4.4 m/s 0.0 mm 23.6° 1000.8 hPa 6.6 m/s
15:00 21.4° 1000.1 hPa 7.0 m/s 0.0 mm 21.4° 1000.2 hPa 8.4 m/s 12.7 mm 21.5° 998.6 hPa 7.4 m/s 0.0 mm 20.8° 1000.3 hPa 5.2 m/s 0.0 mm 23.6° 1000.8 hPa 7.2 m/s
18:00 21.3° 999.7 hPa 6.4 m/s 0.0 mm 22.2° 999.4 hPa 7.2 m/s 13.0 mm 21.3° 997.8 hPa 7.1 m/s 0.0 mm 21.3° 1000.0 hPa 4.4 m/s 0.0 mm 22.3° 1000.6 hPa 6.4 m/s
21:00 19.4° 999.0 hPa 5.7 m/s 0.0 mm 19.5° 998.9 hPa 4.8 m/s 13.0 mm 19.4° 997.2 hPa 6.1 m/s 0.0 mm 19.5° 999.5 hPa 4.1 m/s 0.0 mm 19.4° 1000.0 hPa 5.3 m/s
 05:00     21:57    Daglengte: 16:57 Vrijdag 30 Jul
00:00 18.2° 997.8 hPa 5.5 m/s 0.0 mm 18.1° 997.8 hPa 5.4 m/s 13.0 mm 18.4° 996.7 hPa 5.0 m/s 0.0 mm 18.3° 999.3 hPa 5.9 m/s
03:00 17.6° 997.1 hPa 6.1 m/s 0.0 mm 18.2° 997.4 hPa 5.8 m/s 13.1 mm 17.1° 995.7 hPa 5.1 m/s 0.0 mm 16.3° 998.7 hPa 6.0 m/s
06:00 17.0° 996.2 hPa 5.3 m/s 0.0 mm 17.0° 996.9 hPa 5.6 m/s 13.9 mm 16.5° 994.7 hPa 4.2 m/s 0.0 mm 15.8° 997.9 hPa 4.8 m/s
09:00 17.0° 995.2 hPa 6.7 m/s 5.8 mm 18.0° 995.6 hPa 8.0 m/s 16.6 mm 16.4° 994.1 hPa 4.8 m/s 0.6 mm 17.0° 996.5 hPa 7.5 m/s
12:00 17.9° 993.7 hPa 5.9 m/s 9.2 mm 18.8° 995.1 hPa 8.7 m/s 25.4 mm 17.7° 993.3 hPa 5.2 m/s 1.2 mm 17.9° 995.9 hPa 7.6 m/s
15:00 18.3° 992.7 hPa 6.1 m/s 3.6 mm 20.1° 994.2 hPa 9.0 m/s 29.8 mm 17.8° 992.3 hPa 5.3 m/s 0.4 mm 16.5° 995.6 hPa 6.5 m/s
18:00 17.1° 991.5 hPa 5.7 m/s 14.6 mm 18.1° 992.4 hPa 9.1 m/s 40.5 mm 16.8° 991.3 hPa 4.8 m/s 1.6 mm 16.9° 994.1 hPa 7.8 m/s
21:00 16.6° 989.8 hPa 3.4 m/s 10.3 mm 18.1° 987.8 hPa 12.1 m/s 43.8 mm 16.2° 990.3 hPa 1.2 m/s 1.0 mm 16.0° 991.0 hPa 8.7 m/s
 05:02     21:55    Daglengte: 16:53 Zaterdag 31 Jul
00:00 15.0° 989.3 hPa 2.8 m/s 0.0 mm 16.5° 983.3 hPa 8.4 m/s 64.6 mm 14.7° 990.8 hPa 1.4 m/s 0.0 mm 14.3° 989.8 hPa 4.2 m/s
03:00 14.0° 991.1 hPa 3.8 m/s 0.0 mm 13.8° 987.3 hPa 6.1 m/s 74.8 mm 14.1° 992.0 hPa 3.2 m/s 0.0 mm 14.5° 990.5 hPa 4.6 m/s
06:00 13.7° 991.9 hPa 5.6 m/s 26.6 mm 13.7° 991.9 hPa 5.6 m/s 26.6 mm
09:00 16.7° 994.1 hPa 6.2 m/s 26.6 mm 16.7° 994.1 hPa 6.2 m/s 26.6 mm
12:00 21.1° 995.8 hPa 5.3 m/s 26.6 mm 21.1° 995.8 hPa 5.3 m/s 26.6 mm
15:00 20.7° 997.5 hPa 5.7 m/s 26.7 mm 20.7° 997.5 hPa 5.7 m/s 26.7 mm
18:00 21.1° 998.5 hPa 5.2 m/s 26.7 mm 21.1° 998.5 hPa 5.2 m/s 26.7 mm
21:00 17.4° 999.7 hPa 3.3 m/s 26.7 mm 17.4° 999.7 hPa 3.3 m/s 26.7 mm
 05:05     21:52    Daglengte: 16:47 Zondag 01 Aug
00:00 14.7° 999.7 hPa 1.9 m/s 26.8 mm 14.7° 999.7 hPa 1.9 m/s 26.8 mm
03:00 14.9° 998.6 hPa 1.7 m/s 27.2 mm 14.9° 998.6 hPa 1.7 m/s 27.2 mm
06:00 15.4° 996.9 hPa 2.8 m/s 28.8 mm 15.4° 996.9 hPa 2.7 m/s 28.8 mm
09:00 15.1° 995.6 hPa 2.7 m/s 38.5 mm 15.1° 995.6 hPa 2.7 m/s 38.5 mm
12:00 15.7° 994.6 hPa 1.7 m/s 48.7 mm 15.7° 994.6 hPa 1.7 m/s 48.7 mm
15:00 16.1° 995.3 hPa 2.3 m/s 51.5 mm 16.1° 995.3 hPa 2.3 m/s 51.5 mm
18:00 20.3° 996.8 hPa 4.0 m/s 51.7 mm 20.3° 996.8 hPa 4.0 m/s 51.7 mm
21:00 17.1° 998.2 hPa 4.9 m/s 52.6 mm 17.1° 998.2 hPa 4.9 m/s 52.6 mm
 05:07     21:50    Daglengte: 16:43 Maandag 02 Aug
00:00 15.3° 999.1 hPa 3.6 m/s 53.9 mm 15.3° 999.1 hPa 3.6 m/s 53.9 mm
03:00 14.7° 999.5 hPa 3.5 m/s 54.0 mm 14.7° 999.5 hPa 3.5 m/s 54.0 mm
06:00 14.8° 999.8 hPa 3.5 m/s 54.1 mm 14.8° 999.8 hPa 3.5 m/s 54.1 mm
09:00 17.8° 1000.3 hPa 4.2 m/s 54.2 mm 17.8° 1000.3 hPa 4.2 m/s 54.2 mm
12:00 20.7° 1001.0 hPa 5.0 m/s 54.5 mm 20.7° 1001.0 hPa 5.0 m/s 54.5 mm
15:00 20.8° 1001.3 hPa 5.4 m/s 54.6 mm 20.7° 1001.3 hPa 5.4 m/s 54.6 mm
18:00 19.6° 1001.6 hPa 4.7 m/s 54.6 mm 19.6° 1001.6 hPa 4.7 m/s 54.6 mm
21:00 16.2° 1001.8 hPa 2.7 m/s 54.6 mm 16.2° 1001.8 hPa 2.7 m/s 54.6 mm
 05:09     21:47    Daglengte: 16:38 Dinsdag 03 Aug
00:00 13.4° 1002.9 hPa 4.4 m/s 54.6 mm 13.4° 1002.9 hPa 4.4 m/s 54.6 mm
03:00 11.9° 1004.7 hPa 3.6 m/s 54.6 mm 11.9° 1004.7 hPa 3.6 m/s 54.6 mm
06:00 10.9° 1006.1 hPa 3.3 m/s 54.6 mm 10.9° 1006.1 hPa 3.3 m/s 54.6 mm
09:00 15.4° 1007.4 hPa 3.7 m/s 54.6 mm 15.4° 1007.4 hPa 3.7 m/s 54.6 mm
12:00 19.2° 1008.6 hPa 3.9 m/s 54.6 mm 19.2° 1008.6 hPa 3.9 m/s 54.6 mm
15:00 20.7° 1008.9 hPa 4.0 m/s 54.6 mm 20.7° 1008.9 hPa 4.0 m/s 54.6 mm
18:00 18.6° 1009.8 hPa 3.9 m/s 54.6 mm 18.6° 1009.8 hPa 3.9 m/s 54.6 mm
21:00 15.9° 1010.5 hPa 1.8 m/s 54.6 mm 15.9° 1010.5 hPa 1.8 m/s 54.6 mm
 05:12     21:45    Daglengte: 16:33 Woensdag 04 Aug
00:00 12.8° 1011.7 hPa 2.2 m/s 54.6 mm 12.8° 1011.7 hPa 2.2 m/s 54.6 mm
03:00 11.4° 1012.2 hPa 1.4 m/s 54.6 mm 11.4° 1012.2 hPa 1.4 m/s 54.6 mm
06:00 11.4° 1012.4 hPa 1.6 m/s 54.6 mm 11.4° 1012.4 hPa 1.6 m/s 54.6 mm
09:00 15.9° 1012.6 hPa 1.8 m/s 54.7 mm 15.9° 1012.6 hPa 1.8 m/s 54.7 mm
15:00 19.4° 1012.4 hPa 3.4 m/s 55.0 mm 19.4° 1012.4 hPa 3.4 m/s 55.0 mm
21:00 16.4° 1012.4 hPa 1.6 m/s 55.1 mm 16.4° 1012.4 hPa 1.6 m/s 55.1 mm
 05:14     21:42    Daglengte: 16:28 Donderdag 05 Aug
03:00 13.3° 1013.4 hPa 1.3 m/s 55.3 mm 13.3° 1013.4 hPa 1.3 m/s 55.3 mm
09:00 18.3° 1013.8 hPa 2.4 m/s 55.4 mm 18.3° 1013.8 hPa 2.4 m/s 55.4 mm
15:00 20.2° 1012.9 hPa 2.8 m/s 55.5 mm 20.2° 1012.9 hPa 2.8 m/s 55.4 mm
21:00 17.6° 1010.4 hPa 5.2 m/s 55.5 mm 17.6° 1010.4 hPa 5.2 m/s 55.5 mm
 05:17     21:39    Daglengte: 16:22 Vrijdag 06 Aug
03:00 18.2° 1008.3 hPa 4.2 m/s 55.5 mm 18.2° 1008.3 hPa 4.2 m/s 55.5 mm
09:00 19.8° 1006.8 hPa 4.8 m/s 55.9 mm 19.8° 1006.8 hPa 4.8 m/s 55.9 mm
15:00 23.5° 1006.2 hPa 4.2 m/s 55.9 mm 23.5° 1006.2 hPa 4.2 m/s 55.9 mm
21:00 19.8° 1004.9 hPa 3.2 m/s 56.4 mm 19.8° 1004.9 hPa 3.2 m/s 56.4 mm
 05:19     21:37    Daglengte: 16:18 Zaterdag 07 Aug
03:00 15.9° 1010.1 hPa 2.2 m/s 0.4 mm
09:00 17.6° 1009.3 hPa 3.6 m/s 0.4 mm
15:00 20.2° 1008.5 hPa 3.8 m/s 1.3 mm
21:00 18.2° 1008.2 hPa 2.8 m/s 1.9 mm
 05:21     21:34    Daglengte: 16:13 Zondag 08 Aug
03:00 16.4° 1008.1 hPa 2.3 m/s 0.8 mm
09:00 17.6° 1007.8 hPa 2.8 m/s 0.2 mm
15:00 20.0° 1008.4 hPa 2.6 m/s 0.9 mm
21:00 18.0° 1009.1 hPa 2.0 m/s 0.4 mm
 05:24     21:31    Daglengte: 16:07 Maandag 09 Aug
03:00 16.1° 1010.1 hPa 1.8 m/s 0.6 mm
09:00 17.8° 1010.7 hPa 1.7 m/s 0.6 mm
15:00 20.3° 1011.3 hPa 3.0 m/s 0.7 mm
21:00 17.8° 1011.5 hPa 1.9 m/s 0.6 mm
 05:26     21:29    Daglengte: 16:03 Dinsdag 10 Aug
03:00 15.8° 1011.9 hPa 0.4 m/s 0.5 mm
09:00 17.2° 1011.9 hPa 0.6 m/s 0.5 mm
15:00 20.1° 1012.2 hPa 1.2 m/s 0.6 mm
21:00 18.1° 1012.1 hPa 1.2 m/s 0.7 mm
 05:29     21:26    Daglengte: 15:57 Woensdag 11 Aug
03:00 15.8° 1012.6 hPa 0.5 m/s 0.4 mm
09:00 17.5° 1012.6 hPa 0.4 m/s 0.5 mm
15:00 20.3° 1012.3 hPa 1.2 m/s 0.8 mm
21:00 18.0° 1012.1 hPa 0.6 m/s 0.5 mm
 05:31     21:23    Daglengte: 15:52 Donderdag 12 Aug
03:00 15.7° 1012.1 hPa 0.4 m/s 0.4 mm
FMI Hirlam - 7.5 km EWN WRFDA - 12 km DWD ICON - 7 km GFS - 25 km Basiskaart






























































Updatetijd (Europe/Amsterdam) Resolutie Lengte Stap
FMI Hirlam 01:45, 07:45, 13:45, 19:45 7.5 km 49h 1h
EWN WRFDA 22:30, 04:30, 10:30, 16:30 12 km 73h 1h
DWD ICON 00:00, 06:00, 12:00, 18:00 7 km 75h 1h
GFS 02:15, 08:15, 14:15, 20:15 25 km 237h 3h
30+ mm
25-30 mm
20-25 mm
15-20 mm
10-15 mm
6-10 mm
4-6 mm
2-4 mm
1-2 mm
0.5-1 mm
0.2-0.5 mm
0.1-0.2 mm
30+ mm
25-30 mm
20-25 mm
15-20 mm
10-15 mm
6-10 mm
4-6 mm
2-4 mm
1-2 mm
0.5-1 mm
0.2-0.5 mm
0.1-0.2 mm
Sneeuwval
Natte sneeuw
Hagel
Vorst
30+ mm
25-30 mm
20-25 mm
15-20 mm
10-15 mm
6-10 mm
4-6 mm
2-4 mm
1-2 mm
0.5-1 mm
0.2-0.5 mm
0.1-0.2 mm
Sneeuwval
Natte sneeuw
Hagel
Vorst
Onweer
50 mm
40 mm
30 mm
26 mm
22 mm
18 mm
14 mm
10 mm
9 mm
8 mm
7 mm
6 mm
5 mm
4.5 mm
4 mm
3.5 mm
3 mm
2.5 mm
2 mm
1.5 mm
1 mm
0.8 mm
0.6 mm
0.4 mm
0.2 mm
0.05 mm
35°
30°
25°
20°
15°
10°